Find Starlink 34972

NORAD ID: 65188 Int'l Des: 2025-175 Owner: SPXS Country: US Constellation: starlink operational
LEOCIRCULARRETROGRADESSO

現在のビュー

3D地球を読み込み中...

About Starlink 34972

Starlink 34972 (NORAD 65188) is a starlink constellation satellite (v2 mini) launched Aug 14, 2025 by SPXS of US. It operates in LEO, CIRCULAR, RETROGRADE, SSO orbit with a mass of 575.00 kg.

次回通過

Passes for default location (London). Set your location on the main map for personalized predictions.

高度履歴

Loading altitude history...

軌道要素

1 65188U 25175Q 26238.17333566 .00014172 00000-0 44080-3 0 9997
2 65188 97.2832 107.5489 0002671 68.3321 291.8206 15.33420197 58224
Epoch: Aug 26, 2026 • Age: 14 hours

現在のステータス

高度 471.3 km
遠地点 / 近地点 N/A
速度 7.63 km/s
衛星直下点 -14.11°S, 137.96°W
打ち上げ日 Aug 14, 2025
運用期間 1 year
タイプ internet

技術仕様

分類 Payload
質量 575.00 kg
乾燥質量 530.00 kg
総質量 575.00 kg
長さ 0.30 m
直径 4.10 m
スパン 29.00 m
形状 Box + pan
製造者 SPXS
バスタイプ Starlink V2MO
フェーズステータス In Orbit
所有者/国 SPXS/US

Most Searched